Regional Weather Roundup
Issued by NWS Wilmington, NC

Current Version | Previous Version | Graphics & Text | Print | Product List | Glossary Off
Versions: 1 2 3 4 5 6 7 8 9 10 11 12 13 14 15 16 17 18 19 20 21 22 23 24 25 26 27 28 29 30 31 32 33 34 35 36 37 38 39 40 41 42 43 44 45 46 47 48 49 50

000
ASUS42 KILM 221713
RWRILM
RWRILM
REGIONAL HOURLY WEATHER ROUNDUP
NATIONAL WEATHER SERVICE WILMINGTON NC
100 PM EDT SUN SEP 22 2019

NOTE: "FAIR" INDICATES FEW OR NO CLOUDS BELOW 12,000 FEET WITH NO
SIGNIFICANT WEATHER AND/OR OBSTRUCTIONS TO VISIBILITY.

...............WFO WILMINGTON COUNTY WARNING AREA...............

......COASTAL NC AND SC COUNTIES......

CITY           SKY/WX    TMP DP  RH WIND       PRES   REMARKS
WILMINGTON     FAIR      83  61  47 E5        30.21F
N MYRTLE BEACH FAIR      81  61  50 SE9       30.21F
MYRTLE BEACH   FAIR      80  60  50 SE9       30.21F

......INLAND NC AND SC COUNTIES.......

CITY           SKY/WX    TMP DP  RH WIND       PRES   REMARKS
LUMBERTON      NOT AVBL
ELIZABETHTOWN  FAIR      81  61  49 S6        30.22F
WHITEVILLE     NOT AVBL
FLORENCE       FAIR      82  59  45 CALM      30.22F
DARLINGTON     FAIR      83  63  50 VRB5      30.22F
KINGSTREE      FAIR      82  54  36 CALM      30.21F
HARTSVILLE     PTSUNNY   84  63  48 VRB5      30.22F
BENNETTSVILLE  FAIR      81  64  57 CALM      30.21F
CONWAY         NOT AVBL
GEORGETOWN     FAIR      81  57  44 CALM      30.21F
MARION         FAIR      81  59  47 S3        30.22F

....................REST OF NORTH CAROLINA......................

.........EASTERN NC.........

CITY           SKY/WX    TMP DP  RH WIND       PRES   REMARKS
CAPE HATTERAS  FAIR     N/A N/A N/A S7        30.23F
JACKSONVILLE   FAIR      81  60  48 CALM      30.21F
MOREHEAD CITY  FAIR      79  64  60 SW8       30.22F
KENANSVILLE    FAIR      81  63  54 CALM      30.22F
NEW BERN       FAIR      83  64  52 SW3       30.22F
ELIZABETH CITY FAIR      83  63  50 SW10      30.19F

.........CENTRAL NC.........

CITY           SKY/WX    TMP DP  RH WIND       PRES   REMARKS
RALEIGH DURHAM FAIR      87  60  40 SW9       30.19F
ROCKY MOUNT    FAIR      84  64  50 VRB7      30.19F
ROANOKE RAPIDS NOT AVBL
FAYETTEVILLE   FAIR      83  61  47 VRB6      30.20F
HOFFMAN        FAIR      83  60  45 W3        30.20F

.........WESTERN NC.........

CITY           SKY/WX    TMP DP  RH WIND       PRES   REMARKS
CHARLOTTE      FAIR      85  60  42 S5        30.21F
GREENSBORO     FAIR      86  61  42 SW8       30.18F
HICKORY        NOT AVBL
BOONE          NOT AVBL
ASHEVILLE      NOT AVBL

.....................REST OF SOUTH CAROLINA.....................

.........EASTERN SC.........

CITY           SKY/WX    TMP DP  RH WIND       PRES   REMARKS
CHARLESTON     PTSUNNY   81  60  48 NE5       30.19F
BEAUFORT MCAS  FAIR      84  63  49 VRB3      30.20F
HILTON HEAD    MOSUNNY   81  64  57 E7        30.22F

.........CENTRAL SC.........

CITY           SKY/WX    TMP DP  RH WIND       PRES   REMARKS
COLUMBIA       FAIR      83  60  45 SE6       30.20F
ORANGEBURG     FAIR      82  53  36 CALM      30.20F
SUMTER SHAW    NOT AVBL

.........WESTERN SC.........

CITY           SKY/WX    TMP DP  RH WIND       PRES   REMARKS
GREENVILLE     NOT AVBL
ROCK HILL      FAIR      83  57  41 CALM      30.22F
ANDERSON       FAIR      83  59  44 VRB5      30.21F
CLEMSON        NOT AVBL
GREENWOOD      FAIR      81  61  50 VRB7      30.23F


...................COASTAL AND OFFSHORE REPORTS..................

................LOCAL PIERS AND NC RESERVE................


STATION/POSITION TIME  SKY/WX   TEMP    WIND        PRES    VSBY
                                AIR SEA DIR/SP/G
                 (UTC)          (F)     (DEG/KT/KT) (MB)    (MI)
JOHNY MRCER PIER 1630            78 79  130/  5/  7 1023.1F
NC RESRV MASNBRO NOT AVBL
OCEAN CREST PIER NOT AVBL
SPRINGMAID  PIER 1630            80                   N/A


................COASTAL AND OFFSHORE BUOYS................


STATION/POSITION TIME  SKY/WX   TEMP    WIND        PRES    VSBY
                                AIR SEA DIR/SP/G
                 (UTC)          (F)     (DEG/KT/KT) (MB)    (MI)
DIMNDSHOAL 41025 1650                    70/  2/  4 1023.4F
CAPE LOOKOUT     1600            75     120/  3/  4 1023.6F
ONSLOW BAY 41036 NOT AVBL
ONSLOW BAY 41064 1608            78 80   50/  2/  4 1024.0F
ONSLOW BAY 41159 1630               80                N/A
WVE H/P(F/S)=  3/ 8 SWL H/P/D(F/S/D)=  2/100/13

MASNBO INL 41110 1640               81                N/A
WVE H/P(F/S)=  2/12 SWL H/P/D(F/S/D)=  2/100/12

WILM HARBR 41108 1630               80                N/A
WVE H/P(F/S)=  2/ 8 SWL H/P/D(F/S/D)=  2/140/13

27SE WRITB 41037 1608            77 80   20/  2/  6 1022.0F
FRYING PAN 41013 1650            77      60/  8/ 10 1022.9F
WVE H/P(F/S)=  3/13 SWL H/P/D(F/S/D)=  3/110/13

SUNST NRSH 41024 1608            76 80  180/  4/  8 1023.8F
CAPRS NRSH 41029 1608            77 80   60/  8/ 12 1023.8F
EDISTO     41004 1650                    30/ 10/ 14 1022.4F
WVE H/P(F/S)=  4/10 SWL H/P/D(F/S/D)=  5/100/10



..........OFFSHORE BUOYS BEYOND 100 NM OFFSHORE...........
.....IN A TRIANGLE---HAT TO BERMUDA TO BAHAMAS TO HAT.....


STATION/POSITION TIME  SKY/WX   TEMP    WIND        PRES    VSBY
                                AIR SEA DIR/SP/G
                 (UTC)          (F)     (DEG/KT/KT) (MB)    (MI)
150E HAT   41001 1650               81   70/  4/  8 1024.0F
WVE H/P(F/S)=  4/11 SWL H/P/D(F/S/D)=  3/ 60/11

W BERMUDA  41048 1650            77 80   70/ 16/ 17 1021.1F
WVE H/P(F/S)=  7/12 SWL H/P/D(F/S/D)=  7/160/12

ATLANTIC S 41049 1650               83  220/  6/  8 1019.1F
WVE H/P(F/S)=  8/ 9 SWL H/P/D(F/S/D)=  8/170/ 9

E BAHAMAS  41046 1650                   240/ 10/ 14 1012.4F
NE BAHAMAS 41047 1650                    60/ 19/ 25 1015.4F
WVE H/P(F/S)= 11/13 SWL H/P/D(F/S/D)=  8/ 90/13

120E CANVRL41010 1650            79 80   70/ 17/ 23 1020.4F
WVE H/P(F/S)=  7/11 SWL H/P/D(F/S/D)=  5/ 60/11


END



USA.gov is the U.S. government's official web portal to all federal, state and local government web resources and services.